COSMOS 1680

Satellite information

Favourite Embed

Satellite Type and Status

PAYLOADIN ORBIT

Key statistics

Satellite COSMOS 1680 at a glance.

Uptime

14551

Days in orbit

Revolutions

≈ 14.3

Per day

Orbit

LEO

Low Earth Orbit

Inclination

74.1

Latest

Satellite identification and parameters

Extended collection of information and parameters for COSMOS 1680.

Object identification

Identified? True

Debris? False

Object name: COSMOS 1680

International designator: 1985-079A

Object number (NORAD): 16011

Object ID (CCSDS): 16011

Country: COMMONWEALTH OF INDEPENDENT STATES (CIS)

Current information (Y/N): Y

RCS size: LARGE

Orbital parameters

Period: 100.417 minutes

Inclination: 74.052 deg

SMA: 7156.462 km

Apoapsis: 788.415 km

Periapsis: 768.24 km

RAAN: 236.5807 deg

Eccentricy: 0.0014096

Argument of periapsis: 139.1353 deg

Mean anomaly: 221.0859 deg

Mean motion: 14.34019887 rev/day

Mean motion (dot): 0.00000086 rev/day2

B* drag term: 0.000040089 1/REarth

Two-line elements (TLE)

Creation date: July 6, 2025, 6:05 p.m.

Reference frame: TEME

Reference center: EARTH

Epoch: July 6, 2025, 2:39 p.m. UTC

TLE line 0: 0 COSMOS 1680

TLE line 1: 1 16011U 85079A 25187.61110497 .00000086 00000-0 40089-4 0 9999

TLE line 2: 2 16011 74.0520 236.5807 0014096 139.1353 221.0859 14.34019887 82265

Live tracking on map

Real-time ground track for satellite COSMOS 1680.

In-orbit conjunctions

A list of the most updated potential collisions computed for object COSMOS 1680.

Target Orbit TCA Probability of collision Miss distance Type
CZ-6A DEB SSO 2025-06-16 06:12:26 0.0002179884 711.0 (m) DEBRIS
METEOR 2-6 DEB LEO 2025-05-19 05:14:08 0.0001556221 240.0 (m) DEBRIS
FENGYUN 1C DEB SSO 2025-04-18 13:28:35 0.0002154762 303.0 (m) DEBRIS
COSMOS 886 DEB LEO 2025-02-02 13:10:58 0.00014323 315.0 (m) DEBRIS
DMSP 5D-2 F13 DEB SSO 2025-01-06 18:08:03 0.0001888127 440.0 (m) DEBRIS

Associated space launch

Military communications satellite

COSMOS 1680 was lifted into orbit during the mission ‘Kosmos-3M | Strela-2M 37’, on board a Kosmos-3M space rocket.

The launch took place on Sept. 4, 1985, 7:05 a.m. from 132/1 (132L).

For more information about the launch, click the button.

Launch to space Kosmos-3M | Strela-2M 37
Kosmos-3M | Strela-2M 37

Agency: N/A

Status: Launch Successful

Launch date: Sept. 4, 1985, 7:05 a.m. UTC

Rocket: Kosmos-3M

Launch pad: 132/1 (132L)

Location: Plesetsk Cosmodrome, Russian Federation

...

Latest news about this satellite

There are no fresh news available about this satellite. Check back as we update our databases every day.


Newsletter sign-up

Weekly statistics, charts and insights to help you stay on top of the space industry.